| time (UTC) | temp C | wind direction | speed KPH | gust KPH | rain 1hr cm | rain 24hr cm | rain mn cm | humidity % | barometer mb |
| 20260507000529 | 18 | 199 | 6.4 | 11.3 | 0.00 | 0.28 | 0.28 | 88 | 1009.2 |
| 20260507000030 | 18 | 232 | 6.4 | 11.3 | 0.00 | 0.28 | 0.28 | 88 | 1009.1 |
| 20260506235027 | 18 | 215 | 8.0 | 14.5 | 0.00 | 0.28 | 0.28 | 87 | 1008.8 |
| 20260506234521 | 18 | 209 | 8.0 | 14.5 | 0.00 | 0.28 | 0.28 | 87 | 1008.8 |
| 20260506234021 | 18 | 222 | 8.0 | 12.9 | 0.00 | 0.28 | 0.28 | 87 | 1008.8 |
| 20260506233019 | 18 | 219 | 8.0 | 16.1 | 0.00 | 0.28 | 0.28 | 87 | 1009.0 |
| 20260506232519 | 18 | 219 | 8.0 | 16.1 | 0.00 | 0.28 | 0.28 | 87 | 1009.0 |
| 20260506231511 | 19 | 221 | 8.0 | 14.5 | 0.00 | 0.28 | 0.28 | 87 | 1009.1 |
| 20260506231012 | 19 | 233 | 6.4 | 12.9 | 0.00 | 0.28 | 0.28 | 86 | 1009.0 |
| 20260506230512 | 19 | 225 | 6.4 | 11.3 | 0.00 | 0.28 | 0.28 | 86 | 1009.0 |
| 20260506230008 | 19 | 216 | 6.4 | 11.3 | 0.00 | 0.28 | 0.28 | 86 | 1009.0 |
| 20260506225509 | 19 | 194 | 6.4 | 11.3 | 0.00 | 0.28 | 0.28 | 86 | 1008.8 |
| 20260506225008 | 19 | 224 | 6.4 | 12.9 | 0.00 | 0.28 | 0.28 | 86 | 1009.0 |
| 20260506224508 | 19 | 191 | 8.0 | 12.9 | 0.00 | 0.28 | 0.28 | 86 | 1009.0 |
| 20260506223510 | 19 | 204 | 6.4 | 12.9 | 0.00 | 0.28 | 0.28 | 85 | 1009.0 |
| 20260506223004 | 19 | 205 | 6.4 | 12.9 | 0.00 | 0.28 | 0.28 | 86 | 1008.9 |
| 20260506222502 | 19 | 231 | 8.0 | 19.3 | 0.00 | 0.28 | 0.28 | 85 | 1009.1 |
| 20260506221504 | 19 | 214 | 8.0 | 16.1 | 0.00 | 0.28 | 0.28 | 85 | 1009.0 |
| 20260506221004 | 19 | 202 | 9.7 | 16.1 | 0.00 | 0.28 | 0.28 | 86 | 1009.0 |
| 20260506220501 | 19 | 202 | 9.7 | 19.3 | 0.00 | 0.28 | 0.28 | 85 | 1008.8 |
| 20260506220007 | 19 | 217 | 9.7 | 19.3 | 0.00 | 0.28 | 0.28 | 85 | 1008.8 |
| 20260506215005 | 19 | 207 | 11.3 | 20.9 | 0.00 | 0.28 | 0.28 | 85 | 1008.8 |
| 20260506214004 | 19 | 213 | 11.3 | 19.3 | 0.00 | 0.28 | 0.28 | 84 | 1008.9 |
| 20260506213503 | 19 | 207 | 12.9 | 25.7 | 0.00 | 0.28 | 0.28 | 84 | 1008.9 |
| 20260506213004 | 19 | 219 | 12.9 | 25.7 | 0.00 | 0.28 | 0.28 | 84 | 1008.8 |
| 20260506212502 | 19 | 215 | 12.9 | 22.5 | 0.00 | 0.28 | 0.28 | 84 | 1008.7 |
| 20260506212004 | 19 | 194 | 11.3 | 22.5 | 0.00 | 0.28 | 0.28 | 84 | 1008.7 |
| 20260506211502 | 19 | 221 | 11.3 | 22.5 | 0.00 | 0.28 | 0.28 | 84 | 1008.7 |
| 20260506211003 | 19 | 192 | 12.9 | 20.9 | 0.00 | 0.28 | 0.28 | 84 | 1008.7 |
| 20260506210502 | 19 | 222 | 14.5 | 25.7 | 0.00 | 0.28 | 0.28 | 84 | 1008.7 |
| 20260506210004 | 20 | 217 | 14.5 | 25.7 | 0.00 | 0.28 | 0.28 | 84 | 1008.6 |
| 20260506205502 | 20 | 203 | 12.9 | 25.7 | 0.00 | 0.28 | 0.28 | 85 | 1008.6 |
| 20260506205004 | 20 | 222 | 12.9 | 20.9 | 0.00 | 0.28 | 0.28 | 85 | 1008.6 |
| 20260506204502 | 20 | 169 | 12.9 | 20.9 | 0.00 | 0.28 | 0.28 | 84 | 1008.6 |
| 20260506204004 | 19 | 235 | 14.5 | 22.5 | 0.00 | 0.28 | 0.28 | 84 | 1008.4 |
| 20260506203503 | 19 | 244 | 14.5 | 25.7 | 0.00 | 0.28 | 0.28 | 85 | 1008.6 |
| 20260506203005 | 19 | 190 | 14.5 | 25.7 | 0.00 | 0.28 | 0.28 | 85 | 1008.5 |
| 20260506202503 | 19 | 239 | 14.5 | 25.7 | 0.00 | 0.28 | 0.28 | 86 | 1008.4 |
| 20260506202003 | 19 | 221 | 16.1 | 32.2 | 0.00 | 0.28 | 0.28 | 85 | 1008.4 |
| 20260506201004 | 19 | 206 | 14.5 | 25.7 | 0.00 | 0.28 | 0.28 | 85 | 1008.5 |
| 20260506200501 | 19 | 229 | 14.5 | 24.1 | 0.00 | 0.28 | 0.28 | 86 | 1008.3 |
| 20260506195503 | 18 | 200 | 16.1 | 32.2 | 0.00 | 0.28 | 0.28 | 86 | 1008.4 |
| 20260506195005 | 18 | 213 | 17.7 | 33.8 | 0.00 | 0.28 | 0.28 | 87 | 1008.3 |
| 20260506194502 | 18 | 214 | 16.1 | 33.8 | 0.00 | 0.28 | 0.28 | 86 | 1008.6 |
| 20260506194006 | 19 | 209 | 14.5 | 27.4 | 0.00 | 0.28 | 0.28 | 88 | 1008.7 |
| 20260506193502 | 18 | 175 | 14.5 | 27.4 | 0.00 | 0.28 | 0.28 | 88 | 1008.5 |
| 20260506193004 | 18 | 215 | 16.1 | 29.0 | 0.28 | 0.28 | 0.28 | 88 | 1008.8 |
| 20260506192503 | 18 | 205 | 14.5 | 29.0 | 0.28 | 0.28 | 0.28 | 88 | 1008.7 |
| 20260506192004 | 18 | 247 | 14.5 | 27.4 | 0.28 | 0.28 | 0.28 | 88 | 1008.9 |
| 20260506191003 | 18 | 207 | 14.5 | 22.5 | 0.28 | 0.28 | 0.28 | 88 | 1008.9 |
| 20260506190503 | 17 | 217 | 16.1 | 30.6 | 0.28 | 0.28 | 0.28 | 89 | 1009.1 |
| 20260506185502 | 17 | 198 | 14.5 | 29.0 | 0.28 | 0.28 | 0.28 | 89 | 1009.1 |
| 20260506185006 | 17 | 192 | 14.5 | 25.7 | 0.28 | 0.28 | 0.28 | 89 | 1009.1 |
| 20260506184503 | 17 | 221 | 14.5 | 25.7 | 0.28 | 0.28 | 0.28 | 89 | 1009.1 |
| 20260506184004 | 17 | 218 | 14.5 | 24.1 | 0.28 | 0.28 | 0.28 | 89 | 1009.1 |
| 20260506183005 | 17 | 213 | 16.1 | 32.2 | 0.00 | 0.00 | 0.00 | 89 | 1009.0 |
| 20260506182503 | 17 | 213 | 16.1 | 32.2 | 0.00 | 0.00 | 0.00 | 89 | 1009.3 |
| 20260506181503 | 17 | 176 | 14.5 | 29.0 | 0.00 | 0.00 | 0.00 | 89 | 1009.3 |
| 20260506181005 | 17 | 202 | 14.5 | 30.6 | 0.00 | 0.00 | 0.00 | 90 | 1009.3 |
| 20260506180502 | 17 | 213 | 11.3 | 30.6 | 0.00 | 0.00 | 0.00 | 90 | 1009.4 |
| 20260506180005 | 17 | 168 | 11.3 | 29.0 | 0.00 | 0.00 | 0.00 | 90 | 1009.5 |
| 20260506175503 | 16 | 236 | 11.3 | 24.1 | 0.00 | 0.00 | 0.00 | 90 | 1009.6 |
| 20260506175004 | 16 | 228 | 11.3 | 24.1 | 0.00 | 0.00 | 0.00 | 90 | 1009.6 |
| 20260506174503 | 16 | 192 | 9.7 | 20.9 | 0.00 | 0.00 | 0.00 | 90 | 1009.5 |
| 20260506174004 | 16 | 205 | 11.3 | 19.3 | 0.00 | 0.00 | 0.00 | 90 | 1009.4 |
| 20260506173502 | 16 | 218 | 9.7 | 19.3 | 0.00 | 0.00 | 0.00 | 90 | 1009.6 |
| 20260506173003 | 16 | 186 | 9.7 | 17.7 | 0.00 | 0.00 | 0.00 | 91 | 1009.3 |
| 20260506172504 | 16 | 195 | 8.0 | 16.1 | 0.00 | 0.00 | 0.00 | 91 | 1009.3 |
| 20260506172005 | 16 | 184 | 8.0 | 22.5 | 0.00 | 0.00 | 0.00 | 91 | 1009.4 |
| 20260506171502 | 16 | 174 | 9.7 | 24.1 | 0.00 | 0.00 | 0.00 | 91 | 1009.5 |
| 20260506171006 | 16 | 163 | 11.3 | 29.0 | 0.00 | 0.00 | 0.00 | 91 | 1009.5 |
| 20260506170501 | 16 | 180 | 11.3 | 29.0 | 0.00 | 0.00 | 0.00 | 91 | 1009.7 |
| 20260506165501 | 16 | 172 | 9.7 | 16.1 | 0.00 | 0.00 | 0.00 | 91 | 1009.6 |
| 20260506165005 | 16 | 202 | 11.3 | 19.3 | 0.00 | 0.00 | 0.00 | 91 | 1009.5 |
| 20260506164503 | 16 | 190 | 9.7 | 22.5 | 0.00 | 0.00 | 0.00 | 91 | 1009.5 |
| 20260506164004 | 16 | 134 | 8.0 | 22.5 | 0.00 | 0.00 | 0.00 | 91 | 1009.6 |
| 20260506163504 | 16 | 188 | 9.7 | 22.5 | 0.00 | 0.00 | 0.00 | 91 | 1009.6 |
| 20260506163004 | 16 | 190 | 9.7 | 25.7 | 0.00 | 0.00 | 0.00 | 91 | 1009.7 |
| 20260506162504 | 16 | 167 | 9.7 | 25.7 | 0.00 | 0.00 | 0.00 | 91 | 1009.7 |
| 20260506162004 | 16 | 145 | 11.3 | 20.9 | 0.00 | 0.00 | 0.00 | 91 | 1009.9 |
| 20260506161504 | 16 | 211 | 11.3 | 20.9 | 0.00 | 0.00 | 0.00 | 91 | 1009.9 |
| 20260506161006 | 16 | 222 | 9.7 | 20.9 | 0.00 | 0.00 | 0.00 | 91 | 1009.8 |
| 20260506160502 | 16 | 159 | 9.7 | 17.7 | 0.00 | 0.00 | 0.00 | 91 | 1009.9 |
| 20260506154502 | 16 | 159 | 9.7 | 19.3 | 0.00 | 0.00 | 0.00 | 90 | 1010.3 |
| 20260506154004 | 16 | 160 | 11.3 | 20.9 | 0.00 | 0.00 | 0.00 | 90 | 1010.5 |
| 20260506153502 | 16 | 180 | 11.3 | 30.6 | 0.00 | 0.00 | 0.00 | 90 | 1010.6 |
| 20260506153004 | 16 | 198 | 11.3 | 30.6 | 0.00 | 0.00 | 0.00 | 89 | 1010.7 |
| 20260506152502 | 16 | 188 | 11.3 | 17.7 | 0.00 | 0.00 | 0.00 | 89 | 1010.8 |
| 20260506152003 | 16 | 213 | 9.7 | 17.7 | 0.00 | 0.00 | 0.00 | 89 | 1010.7 |
| 20260506151502 | 16 | 199 | 8.0 | 14.5 | 0.00 | 0.00 | 0.00 | 89 | 1010.9 |
| 20260506151005 | 16 | 184 | 8.0 | 16.1 | 0.00 | 0.00 | 0.00 | 89 | 1010.5 |
| 20260506150502 | 16 | 189 | 9.7 | 16.1 | 0.00 | 0.00 | 0.00 | 89 | 1010.4 |
| 20260506150003 | 16 | 200 | 8.0 | 17.7 | 0.00 | 0.00 | 0.00 | 88 | 1010.5 |
| 20260506145501 | 16 | 207 | 8.0 | 17.7 | 0.00 | 0.00 | 0.00 | 88 | 1010.4 |
| 20260506145004 | 16 | 204 | 9.7 | 20.9 | 0.00 | 0.00 | 0.00 | 87 | 1010.4 |
| 20260506144004 | 17 | 235 | 11.3 | 20.9 | 0.00 | 0.00 | 0.00 | 86 | 1010.6 |
| 20260506143005 | 17 | 200 | 14.5 | 27.4 | 0.00 | 0.00 | 0.00 | 84 | 1010.9 |
| 20260506142502 | 17 | 138 | 14.5 | 25.7 | 0.00 | 0.00 | 0.00 | 82 | 1010.8 |
| 20260506142004 | 17 | 233 | 12.9 | 25.7 | 0.00 | 0.00 | 0.00 | 82 | 1010.9 |
| 20260506141502 | 17 | 189 | 14.5 | 24.1 | 0.00 | 0.00 | 0.00 | 82 | 1011.0 |
| 20260506141003 | 17 | 250 | 14.5 | 32.2 | 0.00 | 0.00 | 0.00 | 81 | 1010.8 |
| 20260506140504 | 17 | 196 | 12.9 | 32.2 | 0.00 | 0.00 | 0.00 | 81 | 1010.7 |
| 20260506140006 | 17 | 204 | 14.5 | 29.0 | 0.00 | 0.00 | 0.00 | 81 | 1010.7 |
| 20260506135004 | 18 | 193 | 14.5 | 30.6 | 0.00 | 0.00 | 0.00 | 79 | 1010.9 |
| 20260506134503 | 18 | 181 | 14.5 | 30.6 | 0.00 | 0.00 | 0.00 | 78 | 1010.7 |
| 20260506134004 | 18 | 188 | 16.1 | 30.6 | 0.00 | 0.00 | 0.00 | 77 | 1010.6 |
| 20260506133503 | 18 | 207 | 16.1 | 30.6 | 0.00 | 0.00 | 0.00 | 77 | 1010.6 |
| 20260506133004 | 18 | 207 | 14.5 | 29.0 | 0.00 | 0.00 | 0.00 | 76 | 1010.5 |
| 20260506132502 | 18 | 211 | 14.5 | 27.4 | 0.00 | 0.00 | 0.00 | 78 | 1010.5 |
| 20260506132003 | 18 | 185 | 16.1 | 32.2 | 0.00 | 0.00 | 0.00 | 78 | 1010.5 |
| 20260506131503 | 18 | 217 | 16.1 | 32.2 | 0.00 | 0.00 | 0.00 | 78 | 1010.5 |
| 20260506131004 | 18 | 224 | 16.1 | 30.6 | 0.00 | 0.00 | 0.00 | 79 | 1010.6 |
| 20260506130502 | 18 | 215 | 14.5 | 30.6 | 0.00 | 0.00 | 0.00 | 79 | 1010.6 |
| 20260506130005 | 18 | 191 | 14.5 | 29.0 | 0.00 | 0.00 | 0.00 | 78 | 1010.6 |
| 20260506125501 | 18 | 207 | 16.1 | 30.6 | 0.00 | 0.00 | 0.00 | 78 | 1010.7 |
| 20260506125004 | 18 | 212 | 17.7 | 30.6 | 0.00 | 0.00 | 0.00 | 78 | 1010.9 |
| 20260506124503 | 18 | 224 | 19.3 | 38.6 | 0.00 | 0.00 | 0.00 | 78 | 1010.8 |
| 20260506124004 | 18 | 186 | 19.3 | 38.6 | 0.00 | 0.00 | 0.00 | 77 | 1010.9 |
| 20260506123501 | 18 | 207 | 17.7 | 37.0 | 0.00 | 0.00 | 0.00 | 77 | 1011.0 |
| 20260506123005 | 18 | 202 | 20.9 | 46.7 | 0.00 | 0.00 | 0.00 | 77 | 1010.9 |
| 20260506122501 | 18 | 211 | 20.9 | 46.7 | 0.00 | 0.00 | 0.00 | 77 | 1010.9 |
| 20260506122004 | 18 | 184 | 17.7 | 37.0 | 0.00 | 0.00 | 0.00 | 78 | 1010.7 |
| 20260506121502 | 18 | 202 | 19.3 | 35.4 | 0.00 | 0.00 | 0.00 | 78 | 1010.8 |
| 20260506121003 | 18 | 182 | 19.3 | 38.6 | 0.00 | 0.00 | 0.00 | 77 | 1010.6 |
| 20260506120502 | 18 | 169 | 17.7 | 38.6 | 0.00 | 0.00 | 0.00 | 77 | 1010.6 |
| 20260506120004 | 18 | 214 | 17.7 | 32.2 | 0.00 | 0.00 | 0.00 | 77 | 1010.6 |
| 20260506115503 | 18 | 174 | 16.1 | 32.2 | 0.00 | 0.00 | 0.00 | 78 | 1010.4 |
| 20260506115004 | 18 | 163 | 16.1 | 32.2 | 0.00 | 0.00 | 0.00 | 78 | 1010.4 |
| 20260506114502 | 18 | 227 | 16.1 | 33.8 | 0.00 | 0.00 | 0.00 | 78 | 1010.3 |
| 20260506114005 | 18 | 169 | 14.5 | 33.8 | 0.00 | 0.00 | 0.00 | 79 | 1010.4 |
| 20260506113502 | 18 | 179 | 14.5 | 27.4 | 0.00 | 0.00 | 0.00 | 79 | 1010.3 |
| 20260506113004 | 18 | 201 | 14.5 | 30.6 | 0.00 | 0.00 | 0.00 | 80 | 1010.3 |
| 20260506112003 | 18 | 212 | 14.5 | 27.4 | 0.00 | 0.00 | 0.00 | 80 | 1010.2 |
| 20260506111504 | 18 | 200 | 12.9 | 27.4 | 0.00 | 0.00 | 0.00 | 80 | 1010.3 |
| 20260506110502 | 18 | 205 | 12.9 | 20.9 | 0.00 | 0.00 | 0.00 | 80 | 1010.2 |
| 20260506110001 | 18 | 211 | 14.5 | 27.4 | 0.00 | 0.00 | 0.00 | 80 | 1010.3 |
| 20260506105002 | 18 | 143 | 12.9 | 24.1 | 0.00 | 0.00 | 0.00 | 80 | 1010.1 |
| 20260506104502 | 18 | 190 | 12.9 | 24.1 | 0.00 | 0.00 | 0.00 | 80 | 1010.0 |
| 20260506104004 | 18 | 240 | 11.3 | 24.1 | 0.00 | 0.00 | 0.00 | 80 | 1010.1 |
| 20260506103502 | 18 | 213 | 11.3 | 30.6 | 0.00 | 0.00 | 0.00 | 80 | 1010.1 |
| 20260506103004 | 18 | 200 | 12.9 | 30.6 | 0.00 | 0.00 | 0.00 | 80 | 1010.1 |
| 20260506102501 | 18 | 210 | 11.3 | 22.5 | 0.00 | 0.00 | 0.00 | 80 | 1010.2 |
| 20260506102005 | 17 | 194 | 11.3 | 24.1 | 0.00 | 0.00 | 0.00 | 80 | 1010.2 |
| 20260506101504 | 17 | 216 | 11.3 | 24.1 | 0.00 | 0.00 | 0.00 | 80 | 1010.2 |
| 20260506101002 | 17 | 215 | 11.3 | 24.1 | 0.00 | 0.00 | 0.00 | 80 | 1010.3 |
| 20260506100502 | 17 | 227 | 11.3 | 24.1 | 0.00 | 0.00 | 0.00 | 80 | 1010.0 |
| 20260506100001 | 17 | 198 | 11.3 | 24.1 | 0.00 | 0.00 | 0.00 | 80 | 1010.2 |
| 20260506095501 | 17 | 184 | 11.3 | 24.1 | 0.00 | 0.00 | 0.00 | 80 | 1010.1 |
| 20260506095002 | 17 | 191 | 12.9 | 25.7 | 0.00 | 0.00 | 0.00 | 80 | 1010.1 |
| 20260506094503 | 17 | 193 | 12.9 | 25.7 | 0.00 | 0.00 | 0.00 | 80 | 1010.0 |
| 20260506094002 | 17 | 175 | 11.3 | 25.7 | 0.00 | 0.00 | 0.00 | 80 | 1010.1 |
| 20260506093502 | 17 | 183 | 11.3 | 25.7 | 0.00 | 0.00 | 0.00 | 80 | 1010.1 |
| 20260506092502 | 18 | 209 | 11.3 | 24.1 | 0.00 | 0.00 | 0.00 | 80 | 1010.2 |
| 20260506092004 | 18 | 192 | 11.3 | 24.1 | 0.00 | 0.00 | 0.00 | 80 | 1010.2 |
| 20260506091504 | 18 | 209 | 11.3 | 27.4 | 0.00 | 0.00 | 0.00 | 79 | 1010.3 |
| 20260506090002 | 18 | 211 | 12.9 | 27.4 | 0.00 | 0.00 | 0.00 | 78 | 1010.3 |
| 20260506085459 | 18 | 200 | 12.9 | 27.4 | 0.00 | 0.00 | 0.00 | 78 | 1010.2 |
| 20260506084958 | 18 | 213 | 11.3 | 22.5 | 0.00 | 0.00 | 0.00 | 77 | 1010.3 |
| 20260506084500 | 18 | 185 | 12.9 | 29.0 | 0.00 | 0.00 | 0.00 | 77 | 1010.3 |
| 20260506083955 | 18 | 182 | 14.5 | 32.2 | 0.00 | 0.00 | 0.00 | 77 | 1010.2 |
| 20260506083457 | 18 | 234 | 14.5 | 32.2 | 0.00 | 0.00 | 0.00 | 76 | 1010.3 |
| 20260506082956 | 18 | 192 | 12.9 | 27.4 | 0.00 | 0.00 | 0.00 | 76 | 1010.2 |
| 20260506082453 | 19 | 202 | 12.9 | 27.4 | 0.00 | 0.00 | 0.00 | 76 | 1010.2 |
| 20260506081952 | 19 | 204 | 14.5 | 27.4 | 0.00 | 0.00 | 0.00 | 75 | 1010.2 |
| 20260506080948 | 19 | 196 | 16.1 | 32.2 | 0.00 | 0.00 | 0.00 | 75 | 1010.3 |
| 20260506080446 | 19 | 178 | 16.1 | 32.2 | 0.00 | 0.00 | 0.00 | 75 | 1010.5 |
| 20260506073439 | 19 | 207 | 16.1 | 32.2 | 0.00 | 0.00 | 0.00 | 75 | 1010.5 |
| 20260506071938 | 19 | 207 | 12.9 | 30.6 | 0.00 | 0.00 | 0.00 | 75 | 1010.6 |
| 20260506062429 | 19 | 171 | 9.7 | 24.1 | 0.00 | 0.00 | 0.00 | 74 | 1010.8 |
| 20260506061934 | 19 | 162 | 8.0 | 24.1 | 0.00 | 0.00 | 0.00 | 74 | 1010.9 |
| 20260506061431 | 19 | 201 | 9.7 | 17.7 | 0.00 | 0.00 | 0.00 | 74 | 1010.9 |
| 20260506060932 | 19 | 154 | 9.7 | 17.7 | 0.00 | 0.00 | 0.00 | 74 | 1010.9 |
| 20260506060430 | 19 | 180 | 9.7 | 16.1 | 0.00 | 0.00 | 0.00 | 74 | 1011.0 |
| 20260506050430 | 20 | 155 | 9.7 | 17.7 | 0.00 | 0.00 | 0.00 | 69 | 1011.3 |
| 20260506044933 | 20 | 184 | 8.0 | 17.7 | 0.00 | 0.00 | 0.00 | 67 | 1011.3 |
| 20260506044430 | 20 | 188 | 8.0 | 17.7 | 0.00 | 0.00 | 0.00 | 67 | 1011.3 |
| 20260506043933 | 20 | 196 | 8.0 | 16.1 | 0.00 | 0.00 | 0.00 | 66 | 1011.3 |
| 20260506043430 | 20 | 194 | 8.0 | 16.1 | 0.00 | 0.00 | 0.00 | 66 | 1011.4 |
| 20260506042430 | 20 | 182 | 8.0 | 14.5 | 0.00 | 0.00 | 0.00 | 66 | 1011.4 |
| 20260506041432 | 20 | 211 | 9.7 | 19.3 | 0.00 | 0.00 | 0.00 | 65 | 1011.3 |
| 20260506040932 | 20 | 191 | 9.7 | 19.3 | 0.00 | 0.00 | 0.00 | 65 | 1011.4 |
| 20260506040430 | 20 | 205 | 9.7 | 17.7 | 0.00 | 0.00 | 0.00 | 65 | 1011.2 |
| 20260506035931 | 20 | 207 | 9.7 | 17.7 | 0.00 | 0.00 | 0.00 | 64 | 1011.3 |
| 20260506035431 | 20 | 223 | 9.7 | 17.7 | 0.00 | 0.00 | 0.00 | 64 | 1011.4 |
| 20260506034932 | 20 | 225 | 8.0 | 17.7 | 0.00 | 0.00 | 0.00 | 64 | 1011.3 |
| 20260506034432 | 20 | 195 | 9.7 | 16.1 | 0.00 | 0.00 | 0.00 | 64 | 1011.3 |
| 20260506033933 | 20 | 182 | 8.0 | 16.1 | 0.00 | 0.00 | 0.00 | 64 | 1011.3 |
| 20260506032933 | 20 | 188 | 8.0 | 16.1 | 0.00 | 0.00 | 0.00 | 64 | 1011.2 |
| 20260506032432 | 20 | 207 | 8.0 | 12.9 | 0.00 | 0.00 | 0.00 | 64 | 1011.3 |
| 20260506031932 | 20 | 211 | 6.4 | 14.5 | 0.00 | 0.00 | 0.00 | 64 | 1011.3 |
| 20260506030433 | 20 | 213 | 8.0 | 16.1 | 0.00 | 0.00 | 0.00 | 64 | 1011.3 |
| 20260506025932 | 20 | 188 | 8.0 | 14.5 | 0.00 | 0.00 | 0.00 | 64 | 1011.3 |
| 20260506024931 | 20 | 185 | 8.0 | 19.3 | 0.00 | 0.00 | 0.00 | 64 | 1011.5 |
| 20260506024435 | 20 | 205 | 6.4 | 19.3 | 0.00 | 0.00 | 0.00 | 65 | 1011.5 |
| 20260506023432 | 20 | 182 | 8.0 | 14.5 | 0.00 | 0.00 | 0.00 | 64 | 1011.6 |
| 20260506022932 | 21 | 221 | 8.0 | 14.5 | 0.00 | 0.00 | 0.00 | 64 | 1011.7 |
| 20260506022429 | 20 | 182 | 6.4 | 12.9 | 0.00 | 0.00 | 0.00 | 64 | 1011.5 |
| 20260506021430 | 21 | 185 | 8.0 | 17.7 | 0.00 | 0.00 | 0.00 | 63 | 1011.6 |
| 20260506020932 | 21 | 186 | 9.7 | 17.7 | 0.00 | 0.00 | 0.00 | 62 | 1011.7 |
| 20260506014933 | 21 | 227 | 9.7 | 24.1 | 0.00 | 0.00 | 0.00 | 61 | 1011.3 |
| 20260506014430 | 21 | 161 | 8.0 | 24.1 | 0.00 | 0.00 | 0.00 | 60 | 1011.2 |
| 20260506013932 | 21 | 228 | 8.0 | 16.1 | 0.00 | 0.00 | 0.00 | 60 | 1011.2 |
| 20260506012931 | 21 | 205 | 8.0 | 17.7 | 0.00 | 0.00 | 0.00 | 60 | 1011.2 |
| 20260506011931 | 21 | 193 | 6.4 | 17.7 | 0.00 | 0.00 | 0.00 | 59 | 1011.0 |
| 20260506011432 | 21 | 186 | 8.0 | 16.1 | 0.00 | 0.00 | 0.00 | 59 | 1011.0 |
| 20260506010932 | 21 | 177 | 8.0 | 16.1 | 0.00 | 0.00 | 0.00 | 59 | 1010.9 |
| 20260506010430 | 22 | 216 | 8.0 | 19.3 | 0.00 | 0.00 | 0.00 | 58 | 1010.9 |
| 20260506005932 | 22 | 185 | 9.7 | 19.3 | 0.00 | 0.00 | 0.00 | 57 | 1010.9 |
| 20260506005429 | 22 | 218 | 9.7 | 16.1 | 0.00 | 0.00 | 0.00 | 57 | 1010.8 |
| 20260506004930 | 22 | 177 | 9.7 | 16.1 | 0.00 | 0.00 | 0.00 | 57 | 1010.8 |
| 20260506004430 | 22 | 190 | 9.7 | 16.1 | 0.00 | 0.00 | 0.00 | 57 | 1010.6 |
| 20260506003932 | 22 | 217 | 8.0 | 16.1 | 0.00 | 0.00 | 0.00 | 56 | 1010.6 |
| 20260506003431 | 22 | 231 | 9.7 | 20.9 | 0.00 | 0.00 | 0.00 | 55 | 1010.6 |
| 20260506002931 | 22 | 323 | 11.3 | 20.9 | 0.00 | 0.00 | 0.00 | 55 | 1010.5 |
| 20260506002430 | 22 | 225 | 9.7 | 20.9 | 0.00 | 0.00 | 0.00 | 55 | 1010.6 |
| 20260506001931 | 22 | 198 | 9.7 | 17.7 | 0.00 | 0.00 | 0.00 | 54 | 1010.5 |
| 20260506001430 | 23 | 196 | 9.7 | 17.7 | 0.00 | 0.00 | 0.00 | 54 | 1010.4 |
| 20260506000933 | 23 | 219 | 9.7 | 22.5 | 0.00 | 0.00 | 0.00 | 54 | 1010.3 |